Home > Weather > Aarhus > Past weeks

Flag for Denmark Past Weather in Aarhus, Denmark — Yesterday and Last 2 Weeks

Now
57 °F

Passing clouds.


Feels Like: 57 °F
Forecast: 51 / 65 °F
Wind: 3 mph from South

Location: Tirstrup

Current Time: Jun 30, 2016 at 3:44:39 AM

Latest Report: Jun 30, 2016 at 3:20 AM


Visibility: N/A

Pressure: 29.80 "Hg

Humidity: 77%

Dew Point: 50 °F

Location of AarhusLocation

Past Weather in Aarhus — Graph

°F

Aarhus Temperature Yesterday

Maximum temperature yesterday: 66 °F (at 4:50 PM)
Minimum temperature yesterday: 50 °F (at 2:50 AM)
Average temperature yesterday: 60 °F

High & Low Weather Summary for the Past Weeks

 TemperatureHumidityPressure
High77 °F (Jun 24, 2:50 PM)94% (Jun 16, 2:50 AM)30.21 "Hg (Jun 16, 2:50 AM)
Low50 °F (Jun 17, 2:20 AM)43% (Jun 19, 4:20 PM)29.50 "Hg (Jun 15, 2:20 AM)
Average62 °F73%29.89 "Hg
* Reported Jun 15 2:20 AM — Jun 30 2:20 AM, Aarhus, Weather by CustomWeather, © 2016

Note: Actual official high and low records may vary slightly from our data, if they occured in-between our weather recording intervals... More about our weather records

Advertising

Aarhus Weather History for the Previous 24 Hours

Scroll right to see more
 ConditionsComfort  
Time TempWeatherWind HumidityBarometerVisibility
2:20 AM
Thu, Jun 30
57 °FPassing clouds.3 mph77%29.80 "HgN/A
1:50 AM55 °FPassing clouds.1 mph82%29.80 "HgN/A
1:20 AM55 °FPassing clouds.3 mph82%29.80 "HgN/A
12:50 AM57 °FCool.5 mph77%29.80 "HgN/A
12:20 AM57 °FCool.3 mph72%29.80 "HgN/A
11:50 PM
Wed, Jun 29
57 °FCool.2 mph72%29.80 "HgN/A
11:20 PM57 °FCool.3 mph77%29.80 "HgN/A
10:50 PM59 °FCool.6 mph72%29.80 "HgN/A
10:20 PM59 °FCool.6 mph72%29.80 "HgN/A
9:50 PM61 °FPassing clouds.3 mph72%29.80 "HgN/A
9:20 PM63 °FPassing clouds.6 mph68%29.77 "HgN/A
8:50 PM64 °FPassing clouds.6 mph64%29.77 "HgN/A
8:20 PM66 °FPassing clouds.6 mph60%29.77 "HgN/A
7:50 PM66 °FMild.6 mph56%29.77 "HgN/A
7:20 PM66 °FMild.6 mph64%29.77 "HgN/A
6:50 PM66 °FScattered clouds.5 mph64%29.77 "HgN/A
6:20 PM66 °FBroken clouds.7 mph64%29.77 "HgN/A
5:50 PM66 °FScattered clouds.8 mph60%29.74 "HgN/A
5:20 PM66 °FMild.8 mph60%29.74 "HgN/A
4:50 PM66 °FBroken clouds.7 mph64%29.77 "HgN/A
4:20 PM64 °FPartly sunny.6 mph68%29.77 "HgN/A
3:50 PM64 °FBroken clouds.7 mph68%29.77 "HgN/A
3:20 PM63 °FPartly sunny.6 mph77%29.77 "HgN/A
2:50 PM61 °FPartly sunny.7 mph83%29.77 "HgN/A
2:20 PM59 °FLight rain. Partly sunny.5 mph88%29.77 "HgN/A
1:50 PM59 °FRain. Partly sunny.2 mph88%29.77 "Hg3 mi
1:20 PM59 °FLight rain. Partly sunny.2 mph88%29.77 "Hg5 mi
12:50 PM59 °FRain. Partly sunny.5 mph82%29.77 "Hg4 mi
12:20 PM59 °FLight rain. Partly sunny.6 mph88%29.77 "Hg5 mi
11:50 AM59 °FRain showers. Partly sunny.5 mph82%29.77 "Hg3 mi
11:20 AM59 °FSprinkles. Partly sunny.6 mph77%29.77 "HgN/A
10:50 AM61 °FRain. Partly sunny.7 mph83%29.77 "HgN/A
10:20 AM63 °FLight rain. Partly sunny.8 mph73%29.77 "HgN/A
9:50 AM63 °FPartly sunny.8 mph68%29.80 "HgN/A
9:20 AM63 °FScattered clouds.8 mph64%29.80 "HgN/A
8:50 AM61 °FPartly sunny.6 mph68%29.80 "HgN/A
8:20 AM61 °FPassing clouds.5 mph68%29.83 "HgN/A
7:50 AM61 °FBroken clouds.6 mph72%29.83 "HgN/A
7:20 AM61 °FPartly sunny.5 mph68%29.83 "HgN/A
6:50 AM59 °FPartly sunny.5 mph77%29.83 "HgN/A
6:20 AM57 °FPartly sunny.6 mph77%29.86 "HgN/A
5:50 AM57 °FPartly sunny.5 mph77%29.86 "HgN/A
5:20 AM55 °FPassing clouds.3 mph82%29.86 "HgN/A
4:50 AM55 °FPassing clouds.5 mph77%29.86 "HgN/A
4:20 AM55 °FPassing clouds.3 mph82%29.89 "HgN/A
3:50 AM54 °FPassing clouds.5 mph82%29.89 "HgN/A
3:20 AM50 °FPassing clouds.2 mph88%29.89 "Hg3 mi
Weather by CustomWeather, © 2016

See weather overviewHow to use our weather pages